Branson, MO

12:17 PM CDT on March 30, 2017 (GMT -0500)
Branson

Weather History for KBBG - July, 2014

Change the Weather History Date:

Tuesday, July 22, 2014

  Actual Average (KHRO) Record (KHRO)
Temperature  
Mean Temperature 82 °F -  
Max Temperature 98 °F 88 °F 106 °F (1974)
Min Temperature 66 °F 66 °F 45 °F (1947)
Cooling Degree Days 17    
Growing Degree Days 32 (Base 50)    
Moisture  
Dew Point 69 °F    
Average Humidity 79    
Maximum Humidity 100    
Minimum Humidity 38    
Precipitation  
Precipitation 0.00 in - - ()
Sea Level Pressure  
Sea Level Pressure 30.10 in    
Wind  
Wind Speed 2 mph (SSE)    
Max Wind Speed 7 mph    
Max Gust Speed -    
Visibility 10 miles    
Events      
Averages and records for this station are not official NWS values.
T = Trace of Precipitation, MM = Missing Value Source: NWS Daily Summary

Daily Weather History Graph

Daily Weather History Graph

Search for Another Location

Airport or City:

Trip Planner

Search our weather history database for the weather conditions in past years. The results will help you decide how hot, cold, wet, or windy it might be!

Date:

Astronomy

Jul. 22, 2014 Rise Set
Actual Time 6:11 AM CDT 8:26 PM CDT
Civil Twilight 5:41 AM CDT 8:56 PM CDT
Nautical Twilight 5:06 AM CDT 9:31 PM CDT
Astronomical Twilight 4:26 AM CDT 10:10 PM CDT
Moon 2:43 AM CDT (7/22) 5:05 PM CDT (7/22)
Length of Visible Light 15h 14m
Length of Day
14h 15m
Waning Crescent, 16% of the Moon is Illuminated
Jul 22
Waning Crescent
Jul 26
New
Aug 3
First Quarter
Aug 10
Full
Aug 17
Last Quarter

Hourly Weather History & Observations

Time (CDT) Temp. Heat Index Dew Point Humidity Pressure Visibility Wind Dir Wind Speed Gust Speed Precip Events Conditions
12:15 AM 71.6 °F - 66.2 °F 83% 30.11 in 10.0 mi SSE 4.6 mph - N/A   Clear
12:35 AM 71.6 °F - 66.2 °F 83% 30.11 in 10.0 mi SSE 4.6 mph - N/A   Clear
12:55 AM 71.6 °F - 68.0 °F 88% 30.11 in 10.0 mi SSE 4.6 mph - N/A   Clear
1:15 AM 71.6 °F - 68.0 °F 88% 30.11 in 10.0 mi SSE 4.6 mph - N/A   Clear
1:35 AM 71.6 °F - 68.0 °F 88% 30.10 in 10.0 mi SSE 3.5 mph - N/A   Clear
1:55 AM 69.8 °F - 68.0 °F 94% 30.10 in 10.0 mi Calm Calm - N/A   Clear
2:15 AM 69.8 °F - 66.2 °F 88% 30.11 in 10.0 mi Calm Calm - N/A   Clear
2:35 AM 68.0 °F - 66.2 °F 94% 30.11 in 10.0 mi Calm Calm - N/A   Scattered Clouds
2:55 AM 68.0 °F - 68.0 °F 100% 30.10 in 10.0 mi Calm Calm - N/A   Overcast
3:15 AM 69.8 °F - 68.0 °F 94% 30.10 in 10.0 mi Calm Calm - N/A   Overcast
3:35 AM 68.0 °F - 66.2 °F 94% 30.10 in 10.0 mi Calm Calm - N/A   Mostly Cloudy
3:55 AM 68.0 °F - 66.2 °F 94% 30.10 in 10.0 mi Calm Calm - N/A   Scattered Clouds
4:15 AM 68.0 °F - 66.2 °F 94% 30.10 in 10.0 mi Calm Calm - N/A   Partly Cloudy
4:35 AM 66.2 °F - 66.2 °F 100% 30.11 in 10.0 mi Calm Calm - N/A   Clear
4:55 AM 66.2 °F - 66.2 °F 100% 30.11 in 10.0 mi Calm Calm - N/A   Clear
5:15 AM 66.2 °F - 66.2 °F 100% 30.11 in 10.0 mi Calm Calm - N/A   Scattered Clouds
5:35 AM 66.2 °F - 66.2 °F 100% 30.12 in 10.0 mi Calm Calm - N/A   Partly Cloudy
5:55 AM 66.2 °F - 66.2 °F 100% 30.11 in 10.0 mi SE 4.6 mph - N/A   Clear
6:15 AM 68.0 °F - 66.2 °F 94% 30.12 in 10.0 mi Calm Calm - N/A   Clear
6:35 AM 68.0 °F - 66.2 °F 94% 30.12 in 10.0 mi Calm Calm - N/A   Clear
6:45 AM 68.0 °F - 66.2 °F 94% 30.13 in 10.0 mi South 3.5 mph - N/A   Clear
7:45 AM 73.4 °F - 68.0 °F 83% 30.14 in 10.0 mi Calm Calm - N/A   Clear
8:45 AM 80.6 °F 83.2 °F 68.0 °F 65% 30.14 in 10.0 mi Calm Calm - N/A   Clear
11:55 AM 87.8 °F 92.6 °F 69.8 °F 55% 30.14 in 10.0 mi SW 6.9 mph - N/A   Clear
12:45 PM 93.2 °F 98.8 °F 69.8 °F 46% 30.14 in 10.0 mi NNW 3.5 mph - N/A   Partly Cloudy
1:45 PM 93.2 °F 94.9 °F 64.4 °F 38% 30.12 in 10.0 mi SSE 5.8 mph - N/A   Scattered Clouds
2:45 PM 95.0 °F 98.5 °F 66.2 °F 39% 30.11 in 10.0 mi SSE 4.6 mph - N/A   Scattered Clouds
3:45 PM 96.8 °F 101.8 °F 68.0 °F 39% 30.09 in 10.0 mi WNW 4.6 mph - N/A   Mostly Cloudy
4:45 PM 98.6 °F 105.5 °F 69.8 °F 39% 30.08 in 10.0 mi NNW 4.6 mph - N/A   Mostly Cloudy
5:45 PM 96.8 °F 103.1 °F 69.8 °F 41% 30.07 in 10.0 mi Calm Calm - N/A   Scattered Clouds
6:45 PM 93.2 °F 100.5 °F 71.6 °F 49% 30.06 in 10.0 mi Calm Calm - N/A   Scattered Clouds
7:45 PM 91.4 °F 98.4 °F 71.6 °F 52% 30.06 in 10.0 mi Calm Calm - N/A   Partly Cloudy
9:15 PM 82.4 °F 88.2 °F 73.4 °F 74% 30.09 in 10.0 mi SSE 4.6 mph - N/A   Clear
9:35 PM 82.4 °F 88.2 °F 73.4 °F 74% 30.09 in 10.0 mi SE 3.5 mph - N/A   Partly Cloudy
9:55 PM 80.6 °F 85.4 °F 73.4 °F 79% 30.09 in 10.0 mi SE 3.5 mph - N/A   Mostly Cloudy
10:15 PM 80.6 °F 85.4 °F 73.4 °F 79% 30.09 in 10.0 mi SE 3.5 mph - N/A   Mostly Cloudy
10:35 PM 78.8 °F - 73.4 °F 83% 30.09 in 10.0 mi SSE 3.5 mph - N/A   Overcast
10:55 PM 78.8 °F - 73.4 °F 83% 30.09 in 10.0 mi Calm Calm - N/A   Mostly Cloudy
11:15 PM 77.0 °F - 73.4 °F 89% 30.10 in 10.0 mi Calm Calm - N/A   Mostly Cloudy
11:35 PM 77.0 °F - 73.4 °F 89% 30.11 in 10.0 mi Calm Calm - N/A   Mostly Cloudy
11:55 PM 77.0 °F - 73.4 °F 89% 30.11 in 10.0 mi SE 3.5 mph - N/A   Overcast